sat.trackr.live / text

‹ back to catalog

USA 285

NORAD 43445 · 2018-036E

PAYLOAD ACTIVE UNKNOWN

§ Identity

Operator
Country
US
Launch date
2018-04-14
Launch site
AFETR
Launch vehicle
Mass (kg)
RCS (m²)

External: N2YO · Heavens-Above · Gunter

§ Orbital elements

Epoch: 2026-05-25T03:31:09.861024Z

Period
1,410.20 min
Inclination
7.0640°
Eccentricity
0.0010716
Mean motion
1.02112913 rev/d
Perigee alt
35,233.6 km
Apogee alt
35,322.9 km
Semi-major
41,656.4 km
B*
0.0000e+0
RAAN
67.2269°
Arg perigee
168.4910°
Mean anomaly
12.4002°
Rev number
2,670

§ Raw data

USA 2851 43445U 18036E   26145.14664191 -.00000077  00000+0  00000+0 0  99912 43445   7.0640  67.2269 0010716 168.4910  12.4002  1.02112913 26709

JSON: /api/v1/satellites/43445 · /tle

For live sub-satellite position, see the globe view (requires WebGL).

§ Visibility from observer

Set your observer location to see the next 7 days of passes ≥ 10°. The values pass through the URL so the page stays shareable.

No JS? Fill the form by hand. The geolocation button needs JavaScript.